Погода в Замбоанге

Филиппины     6°56′21″N   122°04′19″E
темп.,
°C
ветер,
м/с
пор.,
м/с
влажн.,
%
обл.,
%
осадки,
мм/ч
давл.,
гПа
погр.,
м
9 декабря, чт
чт923:00+23ссв118792 0.1 101141
02:00+23с238897 0.1 100964
05:00+23ссв2490100 0.0 100999
08:00+26св2480100 0.0 1011323
11:00+30в2565100 0.0 10101144
14:00+28с0276100 0.6 1008543
17:00+26ссв1287100 0.3 100864
20:00+24ссв2387100 0.3 101098
10 декабря, пт
пт1023:00+23ссв2490100 0.0 1010112
02:00+23ссв2389100 0.0 100999
05:00+23св2488100 0.0 1009129
08:00+26св238091 0.0 1011280
11:00+28в1372100 0.7 1010788
14:00+28юв1276100 3.6 1007674
17:00+26вюв2288100 0.9 1008119
20:00+24всв229253 1.0 101096
11 декабря, сб
сб1123:00+24всв229257 0.0 101066
02:00+23св1191100 1.4 100931
05:00+23всв229192 0.4 100966
08:00+26в238297 0.5 1011384
11:00+28вюв2277100 1.3 1010741
14:00+27зюз0178100 4.2 1008581
17:00+25з1188100 1.6 1009138
20:00+24ссв1192100 1.6 101142
12 декабря, вс
вс1223:00+23ссв119191 0.0 101031
02:00+23св1288100 0.9 100942
05:00+23ссв1186100 0.0 101033
08:00+25в0178100 0.0 1011184
11:00+29ююз226861 0.1 1010895
14:00+26зюз118399 3.1 1008471
17:00+25сз1288100 2.1 1008202
20:00+23с2292100 4.1 101064
13 декабря, пн
пн1323:00+23с119155 0.3 101043
02:00+23ссв1190100 0.5 100834
05:00+23всв1289100 0.1 100850
08:00+25всв1282100 0.1 1010258
11:00+28ю117288 0.3 1009795
14:00+27ююз118270 4.5 1007486
17:00+25зсз118936 2.9 1007148
20:00+23св1193100 5.3 100939